Year,Month,Day,Hour,Minute,Value (Times are PST for temperature in C)
2016,03,29,00,00,4.40
2016,03,29,00,01,4.40
2016,03,29,00,02,4.40
2016,03,29,00,03,4.40
2016,03,29,00,04,4.40
2016,03,29,00,05,4.40
2016,03,29,00,06,4.30
2016,03,29,00,07,4.30
2016,03,29,00,08,4.30
2016,03,29,00,09,4.30
2016,03,29,00,10,4.20
2016,03,29,00,11,4.20
2016,03,29,00,12,4.20
2016,03,29,00,13,4.20
2016,03,29,00,14,4.10
2016,03,29,00,15,4.10
2016,03,29,00,16,4.10
2016,03,29,00,17,4.10
2016,03,29,00,18,4.00
2016,03,29,00,19,4.00
2016,03,29,00,20,4.00
2016,03,29,00,21,4.00
2016,03,29,00,22,3.90
2016,03,29,00,23,3.90
2016,03,29,00,24,3.90
2016,03,29,00,25,3.90
2016,03,29,00,26,3.90
2016,03,29,00,27,3.90
2016,03,29,00,28,3.90
2016,03,29,00,29,3.90
2016,03,29,00,30,3.90
2016,03,29,00,31,3.90
2016,03,29,00,32,3.90
2016,03,29,00,33,3.90
2016,03,29,00,34,3.90
2016,03,29,00,35,3.90
2016,03,29,00,36,3.90
2016,03,29,00,37,3.80
2016,03,29,00,38,3.80
2016,03,29,00,39,3.80
2016,03,29,00,40,3.80
2016,03,29,00,41,3.80
2016,03,29,00,42,3.80
2016,03,29,00,43,3.80
2016,03,29,00,44,3.70
2016,03,29,00,45,3.70
2016,03,29,00,46,3.70
2016,03,29,00,47,3.60
2016,03,29,00,48,3.60
2016,03,29,00,49,3.60
2016,03,29,00,50,3.60
2016,03,29,00,51,3.60
2016,03,29,00,52,3.60
2016,03,29,00,53,3.60
2016,03,29,00,54,3.60
2016,03,29,00,55,3.60
2016,03,29,00,56,3.50
2016,03,29,00,57,3.50
2016,03,29,00,58,3.50
2016,03,29,00,59,3.50
2016,03,29,01,00,3.50
2016,03,29,01,01,3.50
2016,03,29,01,02,3.50
2016,03,29,01,03,3.50
2016,03,29,01,04,3.40
2016,03,29,01,05,3.40
2016,03,29,01,06,3.40
2016,03,29,01,07,3.40
2016,03,29,01,08,3.40
2016,03,29,01,09,3.40
2016,03,29,01,10,3.30
2016,03,29,01,11,3.30
2016,03,29,01,12,3.30
2016,03,29,01,13,3.30
2016,03,29,01,14,3.30
2016,03,29,01,15,3.30
2016,03,29,01,16,3.30
2016,03,29,01,17,3.30
2016,03,29,01,18,3.30
2016,03,29,01,19,3.30
2016,03,29,01,20,3.30
2016,03,29,01,21,3.30
2016,03,29,01,22,3.30
2016,03,29,01,23,3.30
2016,03,29,01,24,3.30
2016,03,29,01,25,3.20
2016,03,29,01,26,3.20
2016,03,29,01,27,3.20
2016,03,29,01,28,3.20
2016,03,29,01,29,3.20
2016,03,29,01,30,3.20
2016,03,29,01,31,3.20
2016,03,29,01,32,3.20
2016,03,29,01,33,3.20
2016,03,29,01,34,3.20
2016,03,29,01,35,3.20
2016,03,29,01,36,3.20
2016,03,29,01,37,3.20
2016,03,29,01,38,3.20
2016,03,29,01,39,3.20
2016,03,29,01,40,3.10
2016,03,29,01,41,3.10
2016,03,29,01,42,3.10
2016,03,29,01,43,3.10
2016,03,29,01,44,3.00
2016,03,29,01,45,3.00
2016,03,29,01,46,2.90
2016,03,29,01,47,2.90
2016,03,29,01,48,2.90
2016,03,29,01,49,2.90
2016,03,29,01,50,2.80
2016,03,29,01,51,2.80
2016,03,29,01,52,2.80
2016,03,29,01,53,2.80
2016,03,29,01,54,2.80
2016,03,29,01,55,2.80
2016,03,29,01,56,2.80
2016,03,29,01,57,2.80
2016,03,29,01,58,2.70
2016,03,29,01,59,2.70
2016,03,29,02,00,2.70
2016,03,29,02,01,2.70
2016,03,29,02,02,2.70
2016,03,29,02,03,2.70
2016,03,29,02,04,2.70
2016,03,29,02,05,2.70
2016,03,29,02,06,2.70
2016,03,29,02,07,2.70
2016,03,29,02,08,2.70
2016,03,29,02,09,2.70
2016,03,29,02,10,2.70
2016,03,29,02,11,2.70
2016,03,29,02,12,2.70
2016,03,29,02,13,2.70
2016,03,29,02,14,2.70
2016,03,29,02,15,2.70
2016,03,29,02,16,2.70
2016,03,29,02,17,2.70
2016,03,29,02,18,2.70
2016,03,29,02,19,2.70
2016,03,29,02,20,2.60
2016,03,29,02,21,2.60
2016,03,29,02,22,2.60
2016,03,29,02,23,2.60
2016,03,29,02,24,2.60
2016,03,29,02,25,2.60
2016,03,29,02,26,2.60
2016,03,29,02,27,2.60
2016,03,29,02,28,2.60
2016,03,29,02,29,2.60
2016,03,29,02,30,2.60
2016,03,29,02,31,2.60
2016,03,29,02,32,2.60
2016,03,29,02,33,2.60
2016,03,29,02,34,2.60
2016,03,29,02,35,2.60
2016,03,29,02,36,2.60
2016,03,29,02,37,2.60
2016,03,29,02,38,2.60
2016,03,29,02,39,2.50
2016,03,29,02,40,2.50
2016,03,29,02,41,2.50
2016,03,29,02,42,2.50
2016,03,29,02,43,2.50
2016,03,29,02,44,2.40
2016,03,29,02,45,2.40
2016,03,29,02,46,2.40
2016,03,29,02,47,2.40
2016,03,29,02,48,2.40
2016,03,29,02,49,2.40
2016,03,29,02,50,2.30
2016,03,29,02,51,2.30
2016,03,29,02,52,2.30
2016,03,29,02,53,2.30
2016,03,29,02,54,2.30
2016,03,29,02,55,2.30
2016,03,29,02,56,2.30
2016,03,29,02,57,2.30
2016,03,29,02,58,2.30
2016,03,29,02,59,2.20
2016,03,29,03,00,2.20
2016,03,29,03,01,2.20
2016,03,29,03,02,2.20
2016,03,29,03,03,2.20
2016,03,29,03,04,2.20
2016,03,29,03,05,2.20
2016,03,29,03,06,2.20
2016,03,29,03,07,2.20
2016,03,29,03,08,2.20
2016,03,29,03,09,2.20
2016,03,29,03,10,2.20
2016,03,29,03,11,2.20
2016,03,29,03,12,2.20
2016,03,29,03,13,2.20
2016,03,29,03,14,2.20
2016,03,29,03,15,2.20
2016,03,29,03,16,2.20
2016,03,29,03,17,2.20
2016,03,29,03,18,2.10
2016,03,29,03,19,2.10
2016,03,29,03,20,2.10
2016,03,29,03,21,2.10
2016,03,29,03,22,2.10
2016,03,29,03,23,2.10
2016,03,29,03,24,2.10
2016,03,29,03,25,2.10
2016,03,29,03,26,2.10
2016,03,29,03,27,2.10
2016,03,29,03,28,2.10
2016,03,29,03,29,2.10
2016,03,29,03,30,2.00
2016,03,29,03,31,2.10
2016,03,29,03,32,2.00
2016,03,29,03,33,2.00
2016,03,29,03,34,2.00
2016,03,29,03,35,2.00
2016,03,29,03,36,2.00
2016,03,29,03,37,1.90
2016,03,29,03,38,1.90
2016,03,29,03,39,1.90
2016,03,29,03,40,1.90
2016,03,29,03,41,1.90
2016,03,29,03,42,1.90
2016,03,29,03,43,1.90
2016,03,29,03,44,1.90
2016,03,29,03,45,1.80
2016,03,29,03,46,1.80
2016,03,29,03,47,1.80
2016,03,29,03,48,1.80
2016,03,29,03,49,1.80
2016,03,29,03,50,1.80
2016,03,29,03,51,1.80
2016,03,29,03,52,1.80
2016,03,29,03,53,1.80
2016,03,29,03,54,1.80
2016,03,29,03,55,1.80
2016,03,29,03,56,1.80
2016,03,29,03,57,1.70
2016,03,29,03,58,1.70
2016,03,29,03,59,1.70
2016,03,29,04,00,1.70
2016,03,29,04,01,1.70
2016,03,29,04,02,1.70
2016,03,29,04,03,1.70
2016,03,29,04,04,1.70
2016,03,29,04,05,1.70
2016,03,29,04,06,1.70
2016,03,29,04,07,1.70
2016,03,29,04,08,1.70
2016,03,29,04,09,1.70
2016,03,29,04,10,1.60
2016,03,29,04,11,1.60
2016,03,29,04,12,1.60
2016,03,29,04,13,1.60
2016,03,29,04,14,1.60
2016,03,29,04,15,1.60
2016,03,29,04,16,1.60
2016,03,29,04,17,1.60
2016,03,29,04,18,1.60
2016,03,29,04,19,1.60
2016,03,29,04,20,1.60
2016,03,29,04,21,1.60
2016,03,29,04,22,1.50
2016,03,29,04,23,1.50
2016,03,29,04,24,1.50
2016,03,29,04,25,1.50
2016,03,29,04,26,1.50
2016,03,29,04,27,1.50
2016,03,29,04,28,1.40
2016,03,29,04,29,1.40
2016,03,29,04,30,1.40
2016,03,29,04,31,1.40
2016,03,29,04,32,1.40
2016,03,29,04,33,1.30
2016,03,29,04,34,1.30
2016,03,29,04,35,1.30
2016,03,29,04,36,1.30
2016,03,29,04,37,1.30
2016,03,29,04,38,1.30
2016,03,29,04,39,1.30
2016,03,29,04,40,1.20
2016,03,29,04,41,1.20
2016,03,29,04,42,1.20
2016,03,29,04,43,1.20
2016,03,29,04,44,1.30
2016,03,29,04,45,1.30
2016,03,29,04,46,1.30
2016,03,29,04,47,1.20
2016,03,29,04,48,1.20
2016,03,29,04,49,1.20
2016,03,29,04,50,1.20
2016,03,29,04,51,1.20
2016,03,29,04,52,1.20
2016,03,29,04,53,1.20
2016,03,29,04,54,1.20
2016,03,29,04,55,1.20
2016,03,29,04,56,1.10
2016,03,29,04,57,1.10
2016,03,29,04,58,1.10
2016,03,29,04,59,1.10
2016,03,29,05,00,1.10
2016,03,29,05,01,1.10
2016,03,29,05,02,1.10
2016,03,29,05,03,1.10
2016,03,29,05,04,1.10
2016,03,29,05,05,1.10
2016,03,29,05,06,1.00
2016,03,29,05,07,1.00
2016,03,29,05,08,1.00
2016,03,29,05,09,1.00
2016,03,29,05,10,1.00
2016,03,29,05,11,1.00
2016,03,29,05,12,1.00
2016,03,29,05,13,0.90
2016,03,29,05,14,0.90
2016,03,29,05,15,0.90
2016,03,29,05,16,0.90
2016,03,29,05,17,0.90
2016,03,29,05,18,0.90
2016,03,29,05,19,0.90
2016,03,29,05,20,0.90
2016,03,29,05,21,0.90
2016,03,29,05,22,0.90
2016,03,29,05,23,0.90
2016,03,29,05,24,1.00
2016,03,29,05,25,1.00
2016,03,29,05,26,1.00
2016,03,29,05,27,0.90
2016,03,29,05,28,0.90
2016,03,29,05,29,0.90
2016,03,29,05,30,0.90
2016,03,29,05,31,0.90
2016,03,29,05,32,0.90
2016,03,29,05,33,0.90
2016,03,29,05,34,0.90
2016,03,29,05,35,0.90
2016,03,29,05,36,0.90
2016,03,29,05,37,0.90
2016,03,29,05,38,0.90
2016,03,29,05,39,0.90
2016,03,29,05,40,0.80
2016,03,29,05,41,0.80
2016,03,29,05,42,0.80
2016,03,29,05,43,0.80
2016,03,29,05,44,0.80
2016,03,29,05,45,0.80
2016,03,29,05,46,0.80
2016,03,29,05,47,0.90
2016,03,29,05,48,0.90
2016,03,29,05,49,0.90
2016,03,29,05,50,0.90
2016,03,29,05,51,0.90
2016,03,29,05,52,0.90
2016,03,29,05,53,0.90
2016,03,29,05,54,0.90
2016,03,29,05,55,0.90
2016,03,29,05,56,0.90
2016,03,29,05,57,0.90
2016,03,29,05,58,0.90
2016,03,29,05,59,0.90
2016,03,29,06,00,0.90
2016,03,29,06,01,0.90
2016,03,29,06,02,0.90
2016,03,29,06,03,0.90
2016,03,29,06,04,0.80
2016,03,29,06,05,0.80
2016,03,29,06,06,0.80
2016,03,29,06,07,0.80
2016,03,29,06,08,0.70
2016,03,29,06,09,0.70
2016,03,29,06,10,0.70
2016,03,29,06,11,0.70
2016,03,29,06,12,0.70
2016,03,29,06,13,0.60
2016,03,29,06,14,0.60
2016,03,29,06,15,0.60
2016,03,29,06,16,0.60
2016,03,29,06,17,0.60
2016,03,29,06,18,0.60
2016,03,29,06,19,0.60
2016,03,29,06,20,0.60
2016,03,29,06,21,0.60
2016,03,29,06,22,0.60
2016,03,29,06,23,0.60
2016,03,29,06,24,0.60
2016,03,29,06,25,0.60
2016,03,29,06,26,0.60
2016,03,29,06,27,0.60
2016,03,29,06,28,0.60
2016,03,29,06,29,0.60
2016,03,29,06,30,0.60
2016,03,29,06,31,0.60
2016,03,29,06,32,0.50
2016,03,29,06,33,0.50
2016,03,29,06,34,0.50
2016,03,29,06,35,0.50
2016,03,29,06,36,0.50
2016,03,29,06,37,0.50
2016,03,29,06,38,0.60
2016,03,29,06,39,0.60
2016,03,29,06,40,0.60
2016,03,29,06,41,0.60
2016,03,29,06,42,0.60
2016,03,29,06,43,0.60
2016,03,29,06,44,0.60
2016,03,29,06,45,0.60
2016,03,29,06,46,0.60
2016,03,29,06,47,0.60
2016,03,29,06,48,0.60
2016,03,29,06,49,0.60
2016,03,29,06,50,0.60
2016,03,29,06,51,0.50
2016,03,29,06,52,0.50
2016,03,29,06,53,0.50
2016,03,29,06,54,0.40
2016,03,29,06,55,0.40
2016,03,29,06,56,0.40
2016,03,29,06,57,0.40
2016,03,29,06,58,0.40
2016,03,29,06,59,0.30
2016,03,29,07,00,0.30
2016,03,29,07,01,0.30
2016,03,29,07,02,0.30
2016,03,29,07,03,0.30
2016,03,29,07,04,0.30
2016,03,29,07,05,0.30
2016,03,29,07,06,0.20
2016,03,29,07,07,0.20
2016,03,29,07,08,0.20
2016,03,29,07,09,0.20
2016,03,29,07,10,0.20
2016,03,29,07,11,0.20
2016,03,29,07,12,0.20
2016,03,29,07,13,0.20
2016,03,29,07,14,0.20
2016,03,29,07,15,0.20
2016,03,29,07,16,0.20
2016,03,29,07,17,0.20
2016,03,29,07,18,0.20
2016,03,29,07,19,0.20
2016,03,29,07,20,0.20
2016,03,29,07,21,0.20
2016,03,29,07,22,0.20
2016,03,29,07,23,0.30
2016,03,29,07,24,0.30
2016,03,29,07,25,0.30
2016,03,29,07,26,0.30
2016,03,29,07,27,0.30
2016,03,29,07,28,0.40
2016,03,29,07,29,0.40
2016,03,29,07,30,0.40
2016,03,29,07,31,0.40
2016,03,29,07,32,0.40
2016,03,29,07,33,0.40
2016,03,29,07,34,0.40
2016,03,29,07,35,0.40
2016,03,29,07,36,0.40
2016,03,29,07,37,0.40
2016,03,29,07,38,0.40
2016,03,29,07,39,0.40
2016,03,29,07,40,0.40
2016,03,29,07,41,0.40
2016,03,29,07,42,0.40
2016,03,29,07,43,0.40
2016,03,29,07,44,0.40
2016,03,29,07,45,0.40
2016,03,29,07,46,0.40
2016,03,29,07,47,0.40
2016,03,29,07,48,0.40
2016,03,29,07,49,0.40
2016,03,29,07,50,0.40
2016,03,29,07,51,0.40
2016,03,29,07,52,0.40
2016,03,29,07,53,0.40
2016,03,29,07,54,0.40
2016,03,29,07,55,0.40
2016,03,29,07,56,0.40
2016,03,29,07,57,0.40
2016,03,29,07,58,0.40
2016,03,29,07,59,0.50
2016,03,29,08,00,0.50
2016,03,29,08,01,0.50
2016,03,29,08,02,0.50
2016,03,29,08,03,0.60
2016,03,29,08,04,0.60
2016,03,29,08,05,0.70
2016,03,29,08,06,0.80
2016,03,29,08,07,0.80
2016,03,29,08,08,0.90
2016,03,29,08,09,1.00
2016,03,29,08,10,1.10
2016,03,29,08,11,1.20
2016,03,29,08,12,1.20
2016,03,29,08,13,1.30
2016,03,29,08,14,1.30
2016,03,29,08,15,1.40
2016,03,29,08,16,1.40
2016,03,29,08,17,1.50
2016,03,29,08,18,1.60
2016,03,29,08,19,1.70
2016,03,29,08,20,1.80
2016,03,29,08,21,1.80
2016,03,29,08,22,1.90
2016,03,29,08,23,2.00
2016,03,29,08,24,2.10
2016,03,29,08,25,2.20
2016,03,29,08,26,2.20
2016,03,29,08,27,2.20
2016,03,29,08,28,2.30
2016,03,29,08,29,2.30
2016,03,29,08,30,2.20
2016,03,29,08,31,2.20
2016,03,29,08,32,2.20
2016,03,29,08,33,2.20
2016,03,29,08,34,2.20
2016,03,29,08,35,2.20
2016,03,29,08,36,2.30
2016,03,29,08,37,2.30
2016,03,29,08,38,2.40
2016,03,29,08,39,2.50
2016,03,29,08,40,2.60
2016,03,29,08,41,2.70
2016,03,29,08,42,2.70
2016,03,29,08,43,2.70
2016,03,29,08,44,2.80
2016,03,29,08,45,2.80
2016,03,29,08,46,2.80
2016,03,29,08,47,2.80
2016,03,29,08,48,2.90
2016,03,29,08,49,2.90
2016,03,29,08,50,2.90
2016,03,29,08,51,2.90
2016,03,29,08,52,2.90
2016,03,29,08,53,2.90
2016,03,29,08,54,3.00
2016,03,29,08,55,3.00
2016,03,29,08,56,3.10
2016,03,29,08,57,3.10
2016,03,29,08,58,3.20
2016,03,29,08,59,3.20
2016,03,29,09,00,3.30
2016,03,29,09,01,3.40
2016,03,29,09,02,3.40
2016,03,29,09,03,3.50
2016,03,29,09,04,3.60
2016,03,29,09,05,3.60
2016,03,29,09,06,3.60
2016,03,29,09,07,3.70
2016,03,29,09,08,3.70
2016,03,29,09,09,3.70
2016,03,29,09,10,3.70
2016,03,29,09,11,3.80
2016,03,29,09,12,3.80
2016,03,29,09,13,3.80
2016,03,29,09,14,3.80
2016,03,29,09,15,3.80
2016,03,29,09,16,3.90
2016,03,29,09,17,3.90
2016,03,29,09,18,3.90
2016,03,29,09,19,4.00
2016,03,29,09,20,4.00
2016,03,29,09,21,4.10
2016,03,29,09,22,4.10
2016,03,29,09,23,4.10
2016,03,29,09,24,4.10
2016,03,29,09,25,4.20
2016,03,29,09,26,4.20
2016,03,29,09,27,4.30
2016,03,29,09,28,4.30
2016,03,29,09,29,4.40
2016,03,29,09,30,4.40
2016,03,29,09,31,4.40
2016,03,29,09,32,4.40
2016,03,29,09,33,4.40
2016,03,29,09,34,4.50
2016,03,29,09,35,4.50
2016,03,29,09,36,4.50
2016,03,29,09,37,4.50
2016,03,29,09,38,4.50
2016,03,29,09,39,4.50
2016,03,29,09,40,4.50
2016,03,29,09,41,4.60
2016,03,29,09,42,4.60
2016,03,29,09,43,4.70
2016,03,29,09,44,4.70
2016,03,29,09,45,4.70
2016,03,29,09,46,4.80
2016,03,29,09,47,4.80
2016,03,29,09,48,4.90
2016,03,29,09,49,5.00
2016,03,29,09,50,5.00
2016,03,29,09,51,5.10
2016,03,29,09,52,5.20
2016,03,29,09,53,5.40
2016,03,29,09,54,5.50
2016,03,29,09,55,5.60
2016,03,29,09,56,5.60
2016,03,29,09,57,5.70
2016,03,29,09,58,5.70
2016,03,29,09,59,5.80
2016,03,29,10,00,5.80
2016,03,29,10,01,5.90
2016,03,29,10,02,5.90
2016,03,29,10,03,5.90
2016,03,29,10,04,5.90
2016,03,29,10,05,6.00
2016,03,29,10,06,6.00
2016,03,29,10,07,6.10
2016,03,29,10,08,6.10
2016,03,29,10,09,6.10
2016,03,29,10,10,6.30
2016,03,29,10,11,6.50
2016,03,29,10,12,6.60
2016,03,29,10,13,6.70
2016,03,29,10,14,6.80
2016,03,29,10,15,6.80
2016,03,29,10,16,6.90
2016,03,29,10,17,6.90
2016,03,29,10,18,6.90
2016,03,29,10,19,7.00
2016,03,29,10,20,7.00
2016,03,29,10,21,7.10
2016,03,29,10,22,7.10
2016,03,29,10,23,7.10
2016,03,29,10,24,7.20
2016,03,29,10,25,7.20
2016,03,29,10,26,7.30
2016,03,29,10,27,7.30
2016,03,29,10,28,7.40
2016,03,29,10,29,7.40
2016,03,29,10,30,7.50
2016,03,29,10,31,7.50
2016,03,29,10,32,7.50
2016,03,29,10,33,7.60
2016,03,29,10,34,7.70
2016,03,29,10,35,7.70
2016,03,29,10,36,7.80
2016,03,29,10,37,7.80
2016,03,29,10,38,7.90
2016,03,29,10,39,7.90
2016,03,29,10,40,7.90
2016,03,29,10,41,7.90
2016,03,29,10,42,8.00
2016,03,29,10,43,8.10
2016,03,29,10,44,8.10
2016,03,29,10,45,8.20
2016,03,29,10,46,8.20
2016,03,29,10,47,8.30
2016,03,29,10,48,8.50
2016,03,29,10,49,8.60
2016,03,29,10,50,8.70
2016,03,29,10,51,8.70
2016,03,29,10,52,8.80
2016,03,29,10,53,8.80
2016,03,29,10,54,8.80
2016,03,29,10,55,8.80
2016,03,29,10,56,8.90
2016,03,29,10,57,8.90
2016,03,29,10,58,9.00
2016,03,29,10,59,9.00
2016,03,29,11,00,9.10
2016,03,29,11,01,9.20
2016,03,29,11,02,9.20
2016,03,29,11,03,9.30
2016,03,29,11,04,9.40
2016,03,29,11,05,9.50
2016,03,29,11,06,9.60
2016,03,29,11,07,9.70
2016,03,29,11,08,9.80
2016,03,29,11,09,9.80
2016,03,29,11,10,9.90
2016,03,29,11,11,10.00
2016,03,29,11,12,10.00
2016,03,29,11,13,10.10
2016,03,29,11,14,10.10
2016,03,29,11,15,10.20
2016,03,29,11,16,10.20
2016,03,29,11,17,10.20
2016,03,29,11,18,10.20
2016,03,29,11,19,10.20
2016,03,29,11,20,10.30
2016,03,29,11,21,10.30
2016,03,29,11,22,10.30
2016,03,29,11,23,10.40
2016,03,29,11,24,10.40
2016,03,29,11,25,10.50
2016,03,29,11,26,10.60
2016,03,29,11,27,10.60
2016,03,29,11,28,10.60
2016,03,29,11,29,10.60
2016,03,29,11,30,10.70
2016,03,29,11,31,10.70
2016,03,29,11,32,10.70
2016,03,29,11,33,10.80
2016,03,29,11,34,10.80
2016,03,29,11,35,10.90
2016,03,29,11,36,10.90
2016,03,29,11,37,11.00
2016,03,29,11,38,11.00
2016,03,29,11,39,11.00
2016,03,29,11,40,11.00
2016,03,29,11,41,11.00
2016,03,29,11,42,11.00
2016,03,29,11,43,11.00
2016,03,29,11,44,11.00
2016,03,29,11,45,11.00
2016,03,29,11,46,11.10
2016,03,29,11,47,11.20
2016,03,29,11,48,11.20
2016,03,29,11,49,11.30
2016,03,29,11,50,11.50
2016,03,29,11,51,11.60
2016,03,29,11,52,11.80
2016,03,29,11,53,11.90
2016,03,29,11,54,12.00
2016,03,29,11,55,12.10
2016,03,29,11,56,12.20
2016,03,29,11,57,12.30
2016,03,29,11,58,12.40
2016,03,29,11,59,12.50
2016,03,29,12,00,12.50
2016,03,29,12,01,12.60
2016,03,29,12,02,12.60
2016,03,29,12,03,12.60
2016,03,29,12,04,12.60
2016,03,29,12,05,12.60
2016,03,29,12,06,12.60
2016,03,29,12,07,12.70
2016,03,29,12,08,12.70
2016,03,29,12,09,12.80
2016,03,29,12,10,12.90
2016,03,29,12,11,12.90
2016,03,29,12,12,13.00
2016,03,29,12,13,13.10
2016,03,29,12,14,13.10
2016,03,29,12,15,13.20
2016,03,29,12,16,13.20
2016,03,29,12,17,13.30
2016,03,29,12,18,13.30
2016,03,29,12,19,13.40
2016,03,29,12,20,13.40
2016,03,29,12,21,13.40
2016,03,29,12,22,13.40
2016,03,29,12,23,13.40
2016,03,29,12,24,13.40
2016,03,29,12,25,13.50
2016,03,29,12,26,13.50
2016,03,29,12,27,13.60
2016,03,29,12,28,13.70
2016,03,29,12,29,13.90
2016,03,29,12,30,14.00
2016,03,29,12,31,14.20
2016,03,29,12,32,14.30
2016,03,29,12,33,14.30
2016,03,29,12,34,14.60
2016,03,29,12,35,14.70
2016,03,29,12,36,14.80
2016,03,29,12,37,14.90
2016,03,29,12,38,14.90
2016,03,29,12,39,14.90
2016,03,29,12,40,14.90
2016,03,29,12,41,14.90
2016,03,29,12,42,15.00
2016,03,29,12,43,15.00
2016,03,29,12,44,15.10
2016,03,29,12,45,15.20
2016,03,29,12,46,15.30
2016,03,29,12,47,15.30
2016,03,29,12,48,15.40
2016,03,29,12,49,15.50
2016,03,29,12,50,15.50
2016,03,29,12,51,15.40
2016,03,29,12,52,15.30
2016,03,29,12,53,15.30
2016,03,29,12,54,15.20
2016,03,29,12,55,15.10
2016,03,29,12,56,15.10
2016,03,29,12,57,15.10
2016,03,29,12,58,15.10
2016,03,29,12,59,15.10
2016,03,29,13,00,15.20
2016,03,29,13,01,15.20
2016,03,29,13,02,15.20
2016,03,29,13,03,15.20
2016,03,29,13,04,15.30
2016,03,29,13,05,15.40
2016,03,29,13,06,15.50
2016,03,29,13,07,15.60
2016,03,29,13,08,15.70
2016,03,29,13,09,15.80
2016,03,29,13,10,15.90
2016,03,29,13,11,16.00
2016,03,29,13,12,16.10
2016,03,29,13,13,16.10
2016,03,29,13,14,16.20
2016,03,29,13,15,16.20
2016,03,29,13,16,16.30
2016,03,29,13,17,16.40
2016,03,29,13,18,16.50
2016,03,29,13,19,16.60
2016,03,29,13,20,16.60
2016,03,29,13,21,16.70
2016,03,29,13,22,16.70
2016,03,29,13,23,16.80
2016,03,29,13,24,16.80
2016,03,29,13,25,16.90
2016,03,29,13,26,16.90
2016,03,29,13,27,17.00
2016,03,29,13,28,16.90
2016,03,29,13,29,16.80
2016,03,29,13,30,16.80
2016,03,29,13,31,16.80
2016,03,29,13,32,16.80
2016,03,29,13,33,16.80
2016,03,29,13,34,16.80
2016,03,29,13,35,16.80
2016,03,29,13,36,16.80
2016,03,29,13,37,16.90
2016,03,29,13,38,16.80
2016,03,29,13,39,16.80
2016,03,29,13,40,16.80
2016,03,29,13,41,16.80
2016,03,29,13,42,16.70
2016,03,29,13,43,16.70
2016,03,29,13,44,16.70
2016,03,29,13,45,16.70
2016,03,29,13,46,16.70
2016,03,29,13,47,16.70
2016,03,29,13,48,16.80
2016,03,29,13,49,16.80
2016,03,29,13,50,16.80
2016,03,29,13,51,16.90
2016,03,29,13,52,16.90
2016,03,29,13,53,17.00
2016,03,29,13,54,17.00
2016,03,29,13,55,17.10
2016,03,29,13,56,17.20
2016,03,29,13,57,17.30
2016,03,29,13,58,17.30
2016,03,29,13,59,17.30
2016,03,29,14,00,17.30
2016,03,29,14,01,17.20
2016,03,29,14,02,17.20
2016,03,29,14,03,17.20
2016,03,29,14,04,17.20
2016,03,29,14,05,17.10
2016,03,29,14,06,17.10
2016,03,29,14,07,17.10
2016,03,29,14,08,17.10
2016,03,29,14,09,17.20
2016,03,29,14,10,17.20
2016,03,29,14,11,17.30
2016,03,29,14,12,17.40
2016,03,29,14,13,17.40
2016,03,29,14,14,17.40
2016,03,29,14,15,17.50
2016,03,29,14,16,17.50
2016,03,29,14,17,17.50
2016,03,29,14,18,17.60
2016,03,29,14,19,17.60
2016,03,29,14,20,17.70
2016,03,29,14,21,17.70
2016,03,29,14,22,17.70
2016,03,29,14,23,17.70
2016,03,29,14,24,17.70
2016,03,29,14,25,17.70
2016,03,29,14,26,17.60
2016,03,29,14,27,17.60
2016,03,29,14,28,17.60
2016,03,29,14,29,17.60
2016,03,29,14,30,17.60
2016,03,29,14,31,17.70
2016,03,29,14,32,17.70
2016,03,29,14,33,17.70
2016,03,29,14,34,17.80
2016,03,29,14,35,17.80
2016,03,29,14,36,17.80
2016,03,29,14,37,17.90
2016,03,29,14,38,17.90
2016,03,29,14,39,18.00
2016,03,29,14,40,18.10
2016,03,29,14,41,18.20
2016,03,29,14,42,18.30
2016,03,29,14,43,18.30
2016,03,29,14,44,18.30
2016,03,29,14,45,18.30
2016,03,29,14,46,18.30
2016,03,29,14,47,18.30
2016,03,29,14,48,18.30
2016,03,29,14,49,18.30
2016,03,29,14,50,18.30
2016,03,29,14,51,18.30
2016,03,29,14,52,18.30
2016,03,29,14,53,18.30
2016,03,29,14,54,18.30
2016,03,29,14,55,18.30
2016,03,29,14,56,18.40
2016,03,29,14,57,18.40
2016,03,29,14,58,18.40
2016,03,29,14,59,18.40
2016,03,29,15,00,18.40
2016,03,29,15,01,18.50
2016,03,29,15,02,18.50
2016,03,29,15,03,18.50
2016,03,29,15,04,18.50
2016,03,29,15,05,18.50
2016,03,29,15,06,18.50
2016,03,29,15,07,18.50
2016,03,29,15,08,18.50
2016,03,29,15,09,18.60
2016,03,29,15,10,18.60
2016,03,29,15,11,18.60
2016,03,29,15,12,18.60
2016,03,29,15,13,18.60
2016,03,29,15,14,18.70
2016,03,29,15,15,18.70
2016,03,29,15,16,18.80
2016,03,29,15,17,18.80
2016,03,29,15,18,18.80
2016,03,29,15,19,18.70
2016,03,29,15,20,18.70
2016,03,29,15,21,18.70
2016,03,29,15,22,18.70
2016,03,29,15,23,18.70
2016,03,29,15,24,18.80
2016,03,29,15,25,18.80
2016,03,29,15,26,18.80
2016,03,29,15,27,18.90
2016,03,29,15,28,18.90
2016,03,29,15,29,18.90
2016,03,29,15,30,19.00
2016,03,29,15,31,19.00
2016,03,29,15,32,19.10
2016,03,29,15,33,19.20
2016,03,29,15,34,19.20
2016,03,29,15,35,19.30
2016,03,29,15,36,19.30
2016,03,29,15,37,19.40
2016,03,29,15,38,19.40
2016,03,29,15,39,19.40
2016,03,29,15,40,19.40
2016,03,29,15,41,19.40
2016,03,29,15,42,19.50
2016,03,29,15,43,19.50
2016,03,29,15,44,19.60
2016,03,29,15,45,19.60
2016,03,29,15,46,19.60
2016,03,29,15,47,19.60
2016,03,29,15,48,19.60
2016,03,29,15,49,19.60
2016,03,29,15,50,19.60
2016,03,29,15,51,19.60
2016,03,29,15,52,19.60
2016,03,29,15,53,19.50
2016,03,29,15,54,19.50
2016,03,29,15,55,19.50
2016,03,29,15,56,19.40
2016,03,29,15,57,19.40
2016,03,29,15,58,19.40
2016,03,29,15,59,19.30
2016,03,29,16,00,19.30
2016,03,29,16,01,19.30
2016,03,29,16,02,19.30
2016,03,29,16,03,19.30
2016,03,29,16,04,19.30
2016,03,29,16,05,19.30
2016,03,29,16,06,19.40
2016,03,29,16,07,19.40
2016,03,29,16,08,19.50
2016,03,29,16,09,19.50
2016,03,29,16,10,19.60
2016,03,29,16,11,19.70
2016,03,29,16,12,19.70
2016,03,29,16,13,19.80
2016,03,29,16,14,19.90
2016,03,29,16,15,19.90
2016,03,29,16,16,19.80
2016,03,29,16,17,19.80
2016,03,29,16,18,19.80
2016,03,29,16,19,19.80
2016,03,29,16,20,19.80
2016,03,29,16,21,19.80
2016,03,29,16,22,19.80
2016,03,29,16,23,19.80
2016,03,29,16,24,19.80
2016,03,29,16,25,19.80
2016,03,29,16,26,19.80
2016,03,29,16,27,19.80
2016,03,29,16,28,19.70
2016,03,29,16,29,19.70
2016,03,29,16,30,19.70
2016,03,29,16,31,19.70
2016,03,29,16,32,19.70
2016,03,29,16,33,19.70
2016,03,29,16,34,19.70
2016,03,29,16,35,19.70
2016,03,29,16,36,19.70
2016,03,29,16,37,19.70
2016,03,29,16,38,19.70
2016,03,29,16,39,19.80
2016,03,29,16,40,19.80
2016,03,29,16,41,19.90
2016,03,29,16,42,19.80
2016,03,29,16,43,19.80
2016,03,29,16,44,19.80
2016,03,29,16,45,19.80
2016,03,29,16,46,19.70
2016,03,29,16,47,19.70
2016,03,29,16,48,19.70
2016,03,29,16,49,19.70
2016,03,29,16,50,19.70
2016,03,29,16,51,19.70
2016,03,29,16,52,19.70
2016,03,29,16,53,19.70
2016,03,29,16,54,19.70
2016,03,29,16,55,19.70
2016,03,29,16,56,19.80
2016,03,29,16,57,19.70
2016,03,29,16,58,19.70
2016,03,29,16,59,19.70
2016,03,29,17,00,19.70
2016,03,29,17,01,19.70
2016,03,29,17,02,19.70
2016,03,29,17,03,19.70
2016,03,29,17,04,19.70
2016,03,29,17,05,19.70
2016,03,29,17,06,19.70
2016,03,29,17,07,19.70
2016,03,29,17,08,19.70
2016,03,29,17,09,19.70
2016,03,29,17,10,19.70
2016,03,29,17,11,19.70
2016,03,29,17,12,19.70
2016,03,29,17,13,19.70
2016,03,29,17,14,19.70
2016,03,29,17,15,19.70
2016,03,29,17,16,19.70
2016,03,29,17,17,19.80
2016,03,29,17,18,19.80
2016,03,29,17,19,19.80
2016,03,29,17,20,19.80
2016,03,29,17,21,19.80
2016,03,29,17,22,19.70
2016,03,29,17,23,19.70
2016,03,29,17,24,19.70
2016,03,29,17,25,19.60
2016,03,29,17,26,19.60
2016,03,29,17,27,19.60
2016,03,29,17,28,19.50
2016,03,29,17,29,19.50
2016,03,29,17,30,19.40
2016,03,29,17,31,19.40
2016,03,29,17,32,19.40
2016,03,29,17,33,19.40
2016,03,29,17,34,19.40
2016,03,29,17,35,19.40
2016,03,29,17,36,19.40
2016,03,29,17,37,19.30
2016,03,29,17,38,19.30
2016,03,29,17,39,19.30
2016,03,29,17,40,19.30
2016,03,29,17,41,19.30
2016,03,29,17,42,19.30
2016,03,29,17,43,19.30
2016,03,29,17,44,19.40
2016,03,29,17,45,19.40
2016,03,29,17,46,19.40
2016,03,29,17,47,19.40
2016,03,29,17,48,19.40